Flag for Austria Weather past 2 weeks in Bad Radkersburg, Styria, Austria

Now
47 °F

Cool.


Feels Like: 47 °F
Forecast: 49 / 70 °F
Wind: 1 mph from East

Location: Murska Sobota

Current Time: May 24, 2015 at 5:56:22 AM

Latest Report: May 24, 2015 at 5:00 AM


Visibility: N/A

Pressure: 29.99 "Hg

Humidity: 99%

Dew point: 47 °F

Location of Bad RadkersburgLocation

Historic Weather in Bad Radkersburg — Graph

°F

Bad Radkersburg temperature yesterday

Maximum temperature yesterday: 55 °F (at 3:00 PM)
Minimum temperature yesterday: 51 °F (at 7:00 AM)
Average temperature yesterday: 53 °F

Past Weeks' High & Low Weather Summary

 TemperatureHumidityPressure
High82 °F (May 19, 4:00 PM)99% (May 17, 5:00 AM)30.38 "Hg (May 17, 5:00 AM)
Low42 °F (May 12, 6:00 AM)29% (May 11, 6:00 PM)29.69 "Hg (May 19, 5:00 PM)
Average60 °F77%30.03 "Hg
* Reported May 9 4:00 AM — May 24 4:00 AM, Bad Radkersburg, Weather by CustomWeather, © 2015

Note: Actual official high and low records may vary slightly from our data, if they occured in-between our weather recording intervals... More about our weather records

Advertising

Bad Radkersburg weather history for previous 24 hours

 ConditionsComfort  
Time TempWeatherWind HumidityBarometerVisibility
4:00 AM
Sun, May 24
47 °FCool.No wind98%29.98 "HgN/A
3:00 AM49 °FCool.1 mph99%29.98 "HgN/A
2:00 AM48 °FCool.2 mph97%29.99 "HgN/A
1:00 AM50 °FCool.1 mph97%29.98 "HgN/A
12:00 AM51 °FCool.2 mph96%29.99 "HgN/A
10:00 PM
Sat, May 23
52 °FCool.3 mph94%29.97 "HgN/A
9:00 PM53 °FCool.3 mph95%29.96 "HgN/A
8:00 PM54 °FOvercast.5 mph95%29.94 "Hg6 mi
7:00 PM54 °FCool.3 mph95%29.93 "HgN/A
6:00 PM55 °FCool.3 mph95%29.93 "HgN/A
5:00 PM55 °FCool.1 mph95%29.92 "HgN/A
4:00 PM55 °FCool.3 mph89%29.91 "HgN/A
3:00 PM55 °FOvercast.5 mph88%29.91 "Hg6 mi
2:00 PM55 °FOvercast.5 mph91%29.91 "Hg6 mi
1:00 PM54 °FCool.3 mph93%29.90 "HgN/A
12:00 PM54 °FCool.1 mph91%29.90 "HgN/A
11:00 AM54 °FCool.2 mph92%29.90 "HgN/A
10:00 AM53 °FCool.3 mph96%29.89 "HgN/A
9:00 AM52 °FCool.2 mph97%29.89 "HgN/A
8:00 AM52 °FRain. Overcast.2 mph98%29.90 "Hg1 mi
7:00 AM51 °FCool.2 mph97%29.90 "HgN/A
6:00 AM52 °FCool.2 mph96%29.89 "HgN/A
5:00 AM52 °FCool.5 mph94%29.90 "HgN/A
Weather by CustomWeather, © 2015

See weather overviewHow to use our weather pages